This is the latest recevied weather packets stored in our database for station/object WB0OCV. If no packets are shown the sender has not sent any weather packets the latest 1 day(s).
| Time | Temp. | Humidity | Pressure | Rain* | Wind** | Luminosity | Snow |
|---|---|---|---|---|---|---|---|
| 1778031480 | 13.33° C | 82% | 1016.1 hPa | 0 mm | 0.89 m/s, 154° | 0 W/m² | - |
| 1778031177 | 13.33° C | 82% | 1016.1 hPa | 0 mm | 0.45 m/s, 157° | 0 W/m² | - |
| 1778030873 | 13.89° C | 81% | 1016.3 hPa | 0 mm | 0 m/s | 0 W/m² | - |
| 1778030570 | 13.89° C | 81% | 1016.1 hPa | 0 mm | 0.45 m/s, 133° | 0 W/m² | - |
| 1778030268 | 13.33° C | 81% | 1015.9 hPa | 0 mm | 0.89 m/s, 92° | 0 W/m² | - |
| 1778029964 | 13.89° C | 80% | 1016 hPa | 0 mm | 0.89 m/s, 177° | 0 W/m² | - |
| 1778029662 | 13.89° C | 79% | 1015.8 hPa | 0 mm | 1.79 m/s, 249° | 0 W/m² | - |
| 1778029359 | 13.33° C | 79% | 1016 hPa | 0 mm | 0.89 m/s, 209° | 0 W/m² | - |
| 1778029057 | 13.89° C | 78% | 1015.7 hPa | 0 mm | 0.45 m/s, 110° | 0 W/m² | - |
| 1778028753 | 13.33° C | 78% | 1015.9 hPa | 0 mm | 0.89 m/s, 238° | 0 W/m² | - |
| 1778028449 | 13.33° C | 78% | 1015.5 hPa | 0 mm | 0.89 m/s, 150° | 0 W/m² | - |
| 1778028147 | 12.78° C | 79% | 1015.4 hPa | 0 mm | 0.45 m/s, 193° | 0 W/m² | - |
| 1778027842 | 12.78° C | 79% | 1015.1 hPa | 0 mm | 0.89 m/s, 325° | 0 W/m² | - |
| 1778027539 | 12.78° C | 78% | 1015 hPa | 0 mm | 1.79 m/s, 260° | 0 W/m² | - |
| 1778027235 | 13.33° C | 78% | 1014.7 hPa | 0 mm | 0.45 m/s, 135° | 0 W/m² | - |
| 1778026931 | 13.33° C | 77% | 1014.8 hPa | 0 mm | 0.45 m/s, 196° | 0 W/m² | - |
| 1778026627 | 13.33° C | 77% | 1014.9 hPa | 0 mm | 0.89 m/s, 111° | 0 W/m² | - |
| 1778026325 | 13.33° C | 77% | 1014.6 hPa | 0 mm | 0.45 m/s, 136° | 0 W/m² | - |
| 1778026022 | 13.33° C | 77% | 1014.8 hPa | 0 mm | 0 m/s | 0 W/m² | - |
| 1778025719 | 13.33° C | 77% | 1014.6 hPa | 0 mm | 0.89 m/s, 152° | 0 W/m² | - |
| 1778025417 | 13.33° C | 77% | 1014.7 hPa | 0 mm | 0.45 m/s, 160° | 0 W/m² | - |
| 1778025114 | 13.33° C | 77% | 1014.7 hPa | 0 mm | 0.89 m/s, 132° | 1 W/m² | - |
| 1778024811 | 13.33° C | 78% | 1014.8 hPa | 0 mm | 0 m/s | 2 W/m² | - |
| 1778024508 | 13.89° C | 77% | 1014.8 hPa | 0 mm | 1.34 m/s, 232° | 3 W/m² | - |
| 1778024205 | 13.89° C | 77% | 1014.7 hPa | 0 mm | 0.89 m/s, 183° | 5 W/m² | - |
* Rain latest hour (hover to see other rain measurements)
** Current wind speed in m/s (hover to see current wind gust speed)